User: anonymous   Login
Location: Unspecified
(0.0000°N, 0.0000°E)
Time: 01:55:37
(UTC+00:00)
Language:

TBA - TO BE ASSIGNED - Orbit

View from above orbital plane
View from above orbital plane
View from above satellite
View from above satellite

Ground track
Ground track

The orbit is defined by the following mean orbital elements,

1 68973U          26145.58335647 +.00000000 +00000-0 +41866-3 0 00003
2 68973  53.1585 268.8395 0001107  82.4779   0.7709 15.49275988    00
Epoch (UTC): 25 May 2026 14:00:01
Eccentricity: 0.0001107
inclination: 53.1585°
perigee height: 418 km
apogee height: 420 km
right ascension of ascending node: 268.8395°
argument of perigee: 82.4779°
revolutions per day: 15.49275988
mean anomaly at epoch: 0.7709°

The dashed part of the orbit path shows where the satellite is in the earth's shadow,  

DLR